HB9DOZ-13 Weather Reports


time (UTC)temp
F
wind
direction
speed
knots
gust
knots
rain 1hr
in
rain 24hr
in
rain mn
in
humidity
%
barometer
mb
20260503004517 57 13 0.9 1.7 0.00 0.00 0.00 76
20260503003517 57 17 0.0 0.9 0.00 0.00 0.00 76
20260503002515 58 17 0.0 0.9 0.00 0.00 0.00 74
20260503001515 58 34 0.9 0.9 0.00 0.00 0.00 74
20260503000556 59 80 0.9 0.9 0.00 0.00 0.00 73
20260502235516 59 95 0.0 0.9 0.00 0.00 0.00 72
20260502234516 59 10 0.9 0.9 0.00 0.00 0.00 72
20260502233517 60 18 0.9 1.7 0.00 0.00 0.00 72
20260502232517 60 66 0.0 0.9 0.00 0.00 0.00 70
20260502231515 60 1 0.9 0.9 0.00 0.00 0.00 71
20260502230535 60 0.0 0.0 0.00 0.00 0.00 71
20260502225536 60 350 0.0 0.9 0.00 0.00 0.00 71
20260502224516 61 31 0.0 1.7 0.00 0.00 0.00 68
20260502223517 60 17 0.0 0.9 0.00 0.00 0.00 68
20260502222517 60 12 1.7 1.7 0.00 0.00 0.00 68
20260502221517 60 9 1.7 2.6 0.00 0.00 0.00 65
20260502220515 61 348 1.7 2.6 0.00 0.00 0.00 64
20260502215516 61 200 0.9 0.9 0.00 0.00 0.00 61
20260502214516 61 0.0 0.0 0.00 0.00 0.00 60
20260502213516 62 202 0.0 3.5 0.00 0.00 0.00 57
20260502212516 62 0.0 0.0 0.00 0.00 0.00 54
20260502211517 63 10 0.0 0.9 0.00 0.00 0.00 53
20260502210517 62 12 1.7 1.7 0.00 0.00 0.00 53
20260502205516 63 14 1.7 2.6 0.00 0.00 0.00 55
20260502204515 63 82 0.0 0.9 0.00 0.00 0.00 52
20260502203517 64 343 0.0 0.9 0.00 0.00 0.00 51
20260502202516 64 335 0.9 1.7 0.00 0.00 0.00 51
20260502201536 64 337 0.9 1.7 0.00 0.00 0.00 51
20260502200517 64 343 0.9 2.6 0.00 0.00 0.00 53
20260502195517 64 344 0.9 1.7 0.00 0.00 0.00 56
20260502194515 64 349 0.9 1.7 0.00 0.00 0.00 59
20260502193515 64 339 0.9 1.7 0.00 0.00 0.00 64
20260502192516 64 350 1.7 2.6 0.00 0.00 0.00 64
20260502191516 64 344 1.7 2.6 0.00 0.00 0.00 63
20260502190516 64 344 1.7 2.6 0.00 0.00 0.00 63
20260502185517 64 345 1.7 2.6 0.00 0.00 0.00 62
20260502184537 65 8 1.7 3.5 0.00 0.00 0.00 61
20260502183516 66 349 1.7 2.6 0.00 0.00 0.00 60
20260502182515 66 350 0.9 1.7 0.00 0.00 0.00 60
20260502181515 67 340 0.9 1.7 0.00 0.00 0.00 60
20260502180516 67 159 0.9 1.7 0.00 0.00 0.00 60
20260502170516 72 244 0.0 0.9 0.00 0.00 0.00 51
20260502163517 74 255 0.0 1.7 0.00 0.00 0.00 47
20260502162517 75 232 0.9 3.5 0.00 0.00 0.00 46
20260502161535 75 225 0.9 3.5 0.00 0.00 0.00 48
20260502160516 75 237 0.9 3.5 0.00 0.00 0.00 49
20260502151517 77 331 0.9 2.6 0.00 0.00 0.00 43
20260502150516 76 225 0.9 3.5 0.00 0.00 0.00 45
20260502130517 75 145 2.6 6.1 0.00 0.00 0.00 46
20260502123515 74 178 2.6 6.1 0.00 0.00 0.00 45
20260502122516 74 133 1.7 6.1 0.00 0.00 0.00 48
20260502121536 74 157 3.5 7.8 0.00 0.00 0.00 47
20260502120516 74 150 2.6 6.1 0.00 0.00 0.00 50
20260502115537 73 147 2.6 6.1 0.00 0.00 0.00 51
20260502114517 73 178 3.5 8.7 0.00 0.00 0.00 49
20260502113515 74 209 1.7 5.2 0.00 0.00 0.00 50
20260502112515 73 181 2.6 5.2 0.00 0.00 0.00 52
20260502111516 72 157 1.7 4.3 0.00 0.00 0.00 55
20260502110516 72 180 3.5 6.1 0.00 0.00 0.00 56
20260502105516 70 168 1.7 4.3 0.00 0.00 0.00 57
20260502104517 70 128 3.5 7.0 0.00 0.00 0.00 58
20260502103557 70 167 4.3 9.6 0.00 0.00 0.00 58
20260502102515 69 151 1.7 6.1 0.00 0.00 0.00 58
20260502101516 68 151 3.5 6.1 0.00 0.00 0.00 60
20260502100516 67 199 1.7 4.3 0.00 0.00 0.00 60
20260502091515 65 188 3.5 6.1 0.00 0.00 0.00 61
20260502090515 65 167 3.5 5.2 0.00 0.00 0.00 61
20260502071518 59 199 0.9 3.5 0.00 0.00 0.00 71
20260502070517 58 154 1.7 4.3 0.00 0.00 0.00 72
20260502065515 57 155 0.0 0.9 0.00 0.00 0.00 72
20260502064516 56 160 0.9 1.7 0.00 0.00 0.00 72
20260502063516 55 146 0.0 0.9 0.00 0.00 0.00 77
20260502062517 53 0.0 0.0 0.00 0.00 0.00 79
20260502061517 53 58 0.0 0.9 0.00 0.00 0.00 77
20260502060557 52 0.0 0.0 0.00 0.00 0.00 77
20260502055518 52 0.0 0.0 0.00 0.00 0.00 77
20260502054515 52 0.0 0.0 0.00 0.00 0.00 76
20260502053536 52 0.0 0.0 0.00 0.00 0.00 74
20260502052515 53 0.0 0.0 0.00 0.00 0.00 73
20260502051516 52 9 0.9 0.9 0.00 0.00 0.00 73
20260502050516 51 0.0 0.0 0.00 0.00 0.00 75
20260502045517 51 29 0.9 0.9 0.00 0.00 0.00 74
20260502044517 51 25 0.0 0.9 0.00 0.00 0.00 75
20260502043555 51 0.0 0.0 0.00 0.00 0.00 75
20260502042516 50 128 0.9 1.7 0.00 0.00 0.00 76
20260502041556 51 32 0.9 0.9 0.00 0.00 0.00 74
20260502040556 51 16 0.9 1.7 0.00 0.00 0.00 74
20260502035517 51 68 0.9 0.9 0.00 0.00 0.00 74
20260502034517 51 0.0 0.0 0.00 0.00 0.00 73
20260502033517 51 68 0.0 0.9 0.00 0.00 0.00 73
20260502032515 51 0.0 0.0 0.00 0.00 0.00 73
20260502031535 52 0.0 0.0 0.00 0.00 0.00 72
20260502030516 52 9 1.7 2.6 0.00 0.00 0.00 72
20260502025537 52 10 1.7 1.7 0.00 0.00 0.00 72
20260502024516 53 10 1.7 1.7 0.00 0.00 0.00 70
20260502023517 53 0.0 0.0 0.00 0.00 0.00 69
20260502022517 53 0.0 0.0 0.00 0.00 0.00 68
20260502021535 53 0.0 0.0 0.00 0.00 0.00 68
20260502020515 53 0.0 0.0 0.00 0.00 0.00 68
20260502015516 53 0.0 0.0 0.00 0.00 0.00 67
20260502014516 54 0.0 0.0 0.00 0.00 0.00 68
20260502013538 54 0.0 0.0 0.00 0.00 0.00 67
20260502012517 54 0.0 0.0 0.00 0.00 0.00 67
20260502011517 54 16 0.9 0.9 0.00 0.00 0.00 67
20260502010515 54 85 0.9 0.9 0.00 0.00 0.00 67
20260502005515 54 0.0 0.0 0.00 0.00 0.00 65